[[{"header":{"parameterUnit":"m.s-1","parameterCategory":1,"la1":30.2991,"la2":30.254,"lo1":-89.0895,"lo2":-89.0444,"dy":0.0017,"dx":0.0017,"nx":28,"ny":28,"refTime":"2024-07-03T09:00:00:Z","depth":0,"parameterNumber":2,"parameterNumberName":"U-component_of_WINDS"},"data":[0,0,0,0,0,0,0,0,0,0,0,0,0,0,0,0,0,0,0,0,0,0,0,0,0,0,0,0,0,0,0,0,0,0,0,0,0,0,0,0,0,0,0,0,0,0,0,0,0,0,0,0,0,0,0,0,0,0,0.8241,0.8242,0,0.8361,0.8362,0.8364,0.844,0.8441,0.8441,0.8441,0.8568,0.8571,0.8574,0,0,0,0,0,0,0,0,0,0,0,0,0,0.8081,0.8083,0.824,0.8242,0.8244,0.8361,0.8362,0.8364,0.844,0.8441,0.8441,0.8442,0.8567,0.8571,0.8574,0,0,0,0,0,0,0,0,0,0,0,0,0,0.817,0.8084,0.824,0.8295,0.8302,0.836,0.8362,0.8365,0.844,0.8441,0.8441,0.8442,0.8566,0.857,0.8575,0.8589,0,0,0.8588,0.859,0,0,0,0,0,0,0,0,0.8165,0.8176,0.8286,0.8292,0.8299,0.8386,0.8353,0.844,0.844,0.8387,0.8441,0.8442,0.8507,0.8516,0.8538,0.8595,0.86,0.8589,0.8591,0.8593,0.8594,0,0,0,0,0,0,0,0.8159,0.8171,0.8288,0.8287,0.8295,0.8316,0.8329,0.8369,0.8442,0.8392,0.8398,0.8411,0.8511,0.8533,0.8541,0.8602,0.8588,0.8592,0.8595,0.8597,0.8679,0.8678,0,0,0,0,0,0,0.8143,0.8166,0.8285,0.8292,0.8232,0.8318,0.8333,0.8357,0.8442,0.8456,0.841,0.8414,0.8525,0.8536,0.8546,0.8569,0.8593,0.8597,0.86,0.8679,0.8679,0.8678,0,0,0,0,0,0,0.814,0.8153,0.828,0.823,0.8248,0.832,0.8347,0.8359,0.8382,0.8456,0.8469,0.8419,0.8526,0.854,0.8578,0.8575,0.8599,0.8603,0.868,0.8679,0.8678,0.8615,0,0,0,0,0,0,0.8135,0.8151,0.8156,0.823,0.825,0.8308,0.8347,0.8361,0.8389,0.8395,0.8468,0.8481,0.8528,0.8571,0.8582,0.8581,0.8607,0.868,0.868,0.8679,0.8617,0.8612,0.8607,0,0,0,0,0,0.8129,0.8134,0.8156,0.817,0.8258,0.8307,0.8319,0.8372,0.8388,0.8395,0.8443,0.8478,0.8573,0.8574,0.8588,0.8588,0.8681,0.868,0.8679,0.862,0.8613,0.8607,0,0,0,0,0,0,0.8059,0.8145,0.817,0.8199,0.8245,0.832,0.833,0.8363,0.8407,0.8411,0.8476,0.8492,0.8523,0.856,0.8559,0.8607,0.8631,0.8633,0.8582,0.8576,0.8571,0.8562,0.861,0,0,0,0,0,0.8047,0.8079,0.8152,0.8171,0.8193,0.8257,0.8281,0.8318,0.8368,0.8389,0.8439,0.8488,0.8529,0.8555,0.8596,0.8623,0.8641,0.863,0.8625,0.8621,0.8621,0.8639,0.8636,0.8675,0.8675,0.8675,0,0,0.8022,0.8073,0.8089,0.8158,0.8198,0.8231,0.8273,0.8306,0.8331,0.8394,0.8433,0.8471,0.8531,0.8563,0.858,0.8594,0.8614,0.8619,0.8615,0.8618,0.8638,0.8634,0.8631,0.8674,0.8674,0.8674,0,0,0.7994,0.8036,0.8056,0.8095,0.8155,0.8198,0.8203,0.8273,0.8301,0.8341,0.8389,0.8421,0.849,0.8531,0.856,0.8549,0.8584,0.8561,0.8534,0.8551,0.8548,0.8545,0.8542,0.854,0.8561,0.8561,0.8561,0,0.7957,0.8007,0.8063,0.8093,0.8122,0.818,0.8202,0.8238,0.8309,0.8328,0.8343,0.8432,0.8476,0.8519,0.8516,0.8538,0.8547,0.8553,0.8543,0.8542,0.854,0.8538,0.8536,0.8558,0.8558,0.8559,0.8559,0,0.7958,0.7992,0.8001,0.8067,0.8098,0.8124,0.8185,0.821,0.8245,0.8286,0.8327,0.8382,0.8436,0.845,0.8484,0.8498,0.8505,0.8531,0.8557,0.8532,0.8531,0.8531,0.8553,0.8554,0.8555,0.8556,0,0,0.7888,0.7985,0.7988,0.8019,0.809,0.8119,0.8148,0.82,0.822,0.8268,0.8295,0.8352,0.8377,0.841,0.845,0.8465,0.8453,0.8489,0.8492,0.8481,0.8474,0.8454,0.8452,0.8477,0.8477,0.8477,0.8469,0,0.7871,0.7925,0.7977,0.8013,0.8046,0.8102,0.8128,0.8175,0.8215,0.8251,0.8296,0.8336,0.8364,0.8385,0.8402,0.8451,0.8453,0.8452,0.8504,0.8505,0.8487,0.8451,0.843,0.8419,0.8469,0.8469,0.8469,0,0.7857,0.7902,0.794,0.801,0.8026,0.8047,0.81,0.8133,0.8188,0.8217,0.8254,0.8296,0.8332,0.8354,0.8404,0.8402,0.8427,0.8454,0.8455,0.8462,0.8485,0.8457,0.8417,0.8415,0.8469,0.8469,0.8469,0,0.7803,0.7873,0.7905,0.793,0.8011,0.8026,0.8061,0.8117,0.8145,0.8192,0.8211,0.8262,0.8289,0.8328,0.8383,0.8394,0.8428,0.8455,0.8454,0.8452,0.8458,0.8457,0.8421,0.8473,0.8473,0.8473,0.8474,0,0.7778,0.78,0.7882,0.7902,0.7929,0.7989,0.8014,0.8054,0.8104,0.8134,0.8186,0.8213,0.8285,0.8321,0.8365,0.84,0.8412,0.8437,0.8448,0.8432,0.8429,0.8449,0.8451,0.8473,0.8473,0.8473,0.8473,0,0.7721,0.7777,0.7817,0.789,0.791,0.7926,0.799,0.8013,0.8056,0.8093,0.8106,0.8175,0.822,0.8279,0.8343,0.8373,0.8403,0.8421,0.8384,0.8391,0.8386,0.8386,0.8363,0.8363,0.8414,0.8413,0.8413,0,0.7702,0.772,0.7796,0.7819,0.7852,0.7889,0.7918,0.7979,0.8008,0.8073,0.8088,0.8137,0.818,0.825,0.8307,0.8357,0.8376,0.8365,0.8384,0.8367,0.8376,0.8374,0.8377,0.8359,0.8358,0.8358,0.8357,0,0.7661,0.7688,0.7728,0.7777,0.7811,0.7853,0.7898,0.7915,0.7985,0.8015,0.8062,0.8095,0.8161,0.8209,0.8267,0.8304,0.8343,0.8351,0.8353,0.8337,0.8315,0.8327,0.8371,0.8351,0.8352,0.8352,0.8352,0.8353,0.7623,0.7642,0.7698,0.7741,0.7781,0.7822,0.7847,0.7894,0.7934,0.7991,0.8025,0.8071,0.8128,0.8209,0.8245,0.8283,0.8297,0.8301,0.8302,0.8301,0.8296,0.8309,0.8293,0.8294,0.8294,0.8294,0.8294,0,0.7585,0.7624,0.7663,0.7724,0.7758,0.7791,0.7843,0.787,0.7909,0.7958,0.7999,0.8053,0.8101,0.8162,0.8214,0.8233,0.8252,0.8245,0.8244,0.8252,0.828,0.8273,0.8228,0.8228,0.8228,0.8228,0.8228,0.8228,0.7569,0.7603,0.7637,0.7692,0.7732,0.7777,0.7803,0.7842,0.7882,0.794,0.798,0.8019,0.8073,0.813,0.8176,0.8193,0.821,0.8197,0.8219,0.8244,0.825,0.8256,0.8249,0.82,0.82,0.8189,0.8188,0.8188]},{"header":{"parameterUnit":"m.s-1","parameterCategory":1,"la1":30.2991,"la2":30.254,"lo1":-89.0895,"lo2":-89.0444,"dy":0.0017,"dx":0.0017,"nx":28,"ny":28,"refTime":"2024-07-03T09:00:00:Z","depth":0,"parameterNumber":3,"parameterNumberName":"V-component_of_WINDS"},"data":[0,0,0,0,0,0,0,0,0,0,0,0,0,0,0,0,0,0,0,0,0,0,0,0,0,0,0,0,0,0,0,0,0,0,0,0,0,0,0,0,0,0,0,0,0,0,0,0,0,0,0,0,0,0,0,0,0,0,3.1512,3.1512,0,3.1513,3.1513,3.1513,3.1534,3.1534,3.1535,3.1536,3.1534,3.1534,3.1533,0,0,0,0,0,0,0,0,0,0,0,0,0,3.1525,3.1525,3.1512,3.1512,3.1512,3.1513,3.1513,3.1513,3.1534,3.1535,3.1535,3.1536,3.1534,3.1534,3.1533,0,0,0,0,0,0,0,0,0,0,0,0,0,3.1522,3.1525,3.1512,3.1522,3.1523,3.1513,3.1513,3.1513,3.1534,3.1535,3.1535,3.1536,3.1535,3.1534,3.1533,3.1512,0,0,3.1531,3.153,0,0,0,0,0,0,0,0,3.1522,3.1522,3.1521,3.1522,3.1523,3.1524,3.1517,3.1513,3.1534,3.153,3.1536,3.1536,3.153,3.153,3.1528,3.1512,3.1512,3.153,3.153,3.153,3.1529,0,0,0,0,0,0,0,3.1522,3.1522,3.1512,3.1521,3.1522,3.1526,3.1527,3.1517,3.1525,3.153,3.1532,3.1532,3.1531,3.1529,3.1528,3.1512,3.1531,3.153,3.1529,3.1529,3.1477,3.1476,0,0,0,0,0,0,3.1522,3.1522,3.1512,3.1512,3.1525,3.1525,3.1526,3.1523,3.1525,3.1527,3.1531,3.1533,3.153,3.1529,3.1528,3.1503,3.153,3.1529,3.1528,3.1478,3.1477,3.1476,0,0,0,0,0,0,3.1522,3.1521,3.1512,3.1517,3.1517,3.1524,3.1521,3.1523,3.1521,3.1526,3.1528,3.1528,3.153,3.1529,3.1516,3.1503,3.1529,3.1528,3.1479,3.1478,3.1476,3.1453,0,0,0,0,0,0,3.1522,3.152,3.1513,3.1517,3.1516,3.15,3.152,3.1522,3.1519,3.1522,3.1523,3.1524,3.1531,3.1517,3.1515,3.1503,3.1527,3.148,3.1478,3.1477,3.1454,3.1451,3.1447,0,0,0,0,0,3.1522,3.1506,3.1513,3.1511,3.1507,3.15,3.1499,3.1508,3.1518,3.1511,3.1514,3.1524,3.1505,3.1515,3.1513,3.15,3.1481,3.1479,3.1477,3.1456,3.1451,3.1447,0,0,0,0,0,0,3.1499,3.1507,3.1514,3.1499,3.1498,3.1503,3.1494,3.1503,3.1499,3.1501,3.1511,3.1511,3.1496,3.1497,3.1508,3.148,3.1495,3.1492,3.148,3.1475,3.1471,3.1471,3.1527,0,0,0,0,0,3.1493,3.1486,3.1493,3.1478,3.1478,3.1486,3.1483,3.149,3.149,3.1489,3.1492,3.1491,3.1484,3.148,3.1474,3.1455,3.1455,3.1445,3.1441,3.1438,3.1436,3.1425,3.142,3.1469,3.1469,3.1469,0,0,3.1478,3.1481,3.1477,3.1474,3.1475,3.1467,3.1486,3.1477,3.1471,3.1488,3.1475,3.1477,3.1476,3.1459,3.1452,3.146,3.1422,3.1436,3.1433,3.1433,3.1422,3.1418,3.1413,3.1468,3.1468,3.1469,0,0,3.1448,3.145,3.1438,3.1439,3.144,3.1445,3.1442,3.1446,3.1448,3.1435,3.1447,3.144,3.1429,3.1428,3.1426,3.1396,3.1404,3.1393,3.1374,3.1363,3.1359,3.1356,3.1344,3.134,3.1391,3.1391,3.1391,0,3.143,3.142,3.1431,3.1422,3.1419,3.1435,3.1422,3.1422,3.1421,3.1418,3.1427,3.1414,3.1414,3.1397,3.139,3.1388,3.1384,3.1393,3.1359,3.1356,3.1353,3.1342,3.1337,3.139,3.139,3.139,3.139,0,3.1397,3.139,3.138,3.1379,3.1376,3.1365,3.1374,3.1369,3.1376,3.138,3.1367,3.1368,3.1363,3.1359,3.1366,3.1343,3.1348,3.1358,3.1373,3.1347,3.1336,3.1332,3.1388,3.1388,3.1389,3.1389,0,0,3.1352,3.1358,3.1354,3.1353,3.1356,3.135,3.1339,3.1335,3.133,3.1329,3.132,3.131,3.132,3.1317,3.1324,3.1314,3.1289,3.1325,3.1326,3.1318,3.1262,3.1254,3.1249,3.1295,3.1294,3.1294,3.1262,0,3.1322,3.1305,3.1315,3.1296,3.1289,3.1304,3.1294,3.1294,3.1297,3.1291,3.1295,3.1288,3.1301,3.1299,3.1291,3.1294,3.1278,3.1296,3.1285,3.1285,3.1284,3.1244,3.1235,3.1205,3.1258,3.1258,3.1257,0,3.1286,3.1283,3.1264,3.1267,3.1265,3.1256,3.1253,3.1247,3.1247,3.125,3.1247,3.1256,3.1245,3.1261,3.1245,3.1257,3.1253,3.1254,3.1253,3.1251,3.1269,3.1241,3.1196,3.1191,3.1251,3.1251,3.1252,0,3.1254,3.1246,3.1233,3.1233,3.1236,3.123,3.1231,3.1232,3.1228,3.1225,3.1223,3.1218,3.1215,3.1211,3.1217,3.1228,3.12,3.1216,3.1201,3.1201,3.1194,3.1194,3.1148,3.1193,3.1193,3.1193,3.1193,0,3.1219,3.1207,3.1219,3.1211,3.1197,3.1208,3.1193,3.1196,3.1196,3.1188,3.12,3.1193,3.1202,3.1195,3.12,3.1186,3.1184,3.1186,3.1187,3.1184,3.1184,3.1181,3.1183,3.1192,3.1192,3.1192,3.1192,0,3.1181,3.1189,3.1176,3.1181,3.1182,3.1171,3.1175,3.1167,3.1171,3.1161,3.1159,3.1166,3.1158,3.1164,3.1156,3.116,3.114,3.1145,3.1141,3.1142,3.1126,3.1127,3.1075,3.1069,3.1119,3.1118,3.1118,0,3.1158,3.1149,3.1153,3.1149,3.1149,3.1143,3.114,3.115,3.1145,3.1144,3.1137,3.113,3.1125,3.1112,3.1115,3.1109,3.1113,3.1095,3.1112,3.1109,3.1112,3.1112,3.111,3.1091,3.1091,3.109,3.109,0,3.1116,3.1121,3.1116,3.1113,3.1109,3.1107,3.1105,3.1101,3.1111,3.1106,3.1098,3.1094,3.1087,3.1079,3.1074,3.1074,3.1083,3.1085,3.1081,3.1077,3.1075,3.1075,3.1131,3.1086,3.1086,3.1087,3.1087,3.1087,3.1085,3.1077,3.1079,3.1073,3.1073,3.1071,3.1064,3.1068,3.1062,3.1057,3.1063,3.1054,3.1053,3.1047,3.1046,3.1038,3.1046,3.104,3.1038,3.1037,3.1034,3.1077,3.1038,3.1038,3.1038,3.1038,3.1038,0,3.1043,3.1045,3.104,3.1038,3.1033,3.1043,3.1042,3.1037,3.1029,3.1028,3.1023,3.1014,3.1007,3.101,3.1003,3.0996,3.1,3.0994,3.0994,3.0994,3.1028,3.1032,3.0991,3.0991,3.0991,3.0991,3.0991,3.0991,3.1021,3.1008,3.1013,3.1,3.1001,3.0993,3.0991,3.0989,3.0989,3.0978,3.0973,3.0975,3.0976,3.0969,3.0963,3.0964,3.0961,3.0953,3.0955,3.0987,3.0992,3.0996,3.1,3.0952,3.0952,3.0921,3.0921,3.0921]}]]